FW1555 Weather Reports


Display with metric or nautical units.
time (UTC)temp
F
wind
direction
speed
MPH
gust
MPH
rain 1hr
in
rain 24hr
in
rain mn
in
humidity
%
barometer
mb
20260906204554 77 0 0.0 3.0 0.00 0.00 0.00 53 1014.7
20260906203053 77 0 0.0 3.0 0.00 0.00 0.00 52 1014.9
20260906201603 77 0 0.0 2.0 0.00 0.00 0.00 53 1014.7
20260906200057 77 0 0.0 4.0 0.00 0.00 0.00 54 1014.8
20260906194558 76 323 1.0 5.0 0.00 0.00 0.00 52 1014.9
20260906193051 77 0 0.0 3.0 0.00 0.00 0.00 55 1015.1
20260906191612 76 0 0.0 4.0 0.00 0.00 0.00 58 1014.9
20260906184604 76 0 1.0 6.0 0.00 0.00 0.00 58 1015.1
20260906183052 76 0 1.0 7.0 0.00 0.00 0.00 61 1014.9
20260906181600 76 0 0.0 4.0 0.00 0.00 0.00 61 1014.9
20260906180112 75 331 0.0 2.0 0.00 0.00 0.00 63 1014.9
20260906174556 76 333 0.0 3.0 0.00 0.00 0.00 62 1014.7
20260906173107 75 0 0.0 5.0 0.00 0.00 0.00 68 1014.8
20260906171604 75 0 0.0 3.0 0.00 0.00 0.00 71 1015.0
20260906170059 74 0 0.0 3.0 0.00 0.00 0.00 73 1015.0
20260906164556 75 53 0.0 5.0 0.00 0.00 0.00 69 1015.0
20260906163111 74 360 0.0 11.0 0.00 0.00 0.00 69 1015.2
20260906161549 74 351 0.0 3.0 0.00 0.00 0.00 70 1015.0
20260906160059 72 0 0.0 2.0 0.00 0.00 0.00 74 1015.2
20260906154555 71 0 0.0 2.0 0.00 0.00 0.00 76 1015.2
20260906153116 72 251 0.0 4.0 0.00 0.00 0.00 75 1015.3
20260906151604 72 340 0.0 4.0 0.00 0.00 0.00 74 1015.4
20260906150059 71 0 0.0 4.0 0.00 0.00 0.00 79 1015.3
20260906144552 70 0 0.0 1.0 0.00 0.00 0.00 80 1015.4
20260906143101 70 0 0.0 2.0 0.00 0.00 0.00 80 1015.3
20260906141600 69 0 0.0 1.0 0.00 0.00 0.00 83 1015.2
20260906140105 69 0 0.0 4.0 0.00 0.00 0.00 82 1015.2
20260906134552 68 0 0.0 3.0 0.00 0.00 0.00 84 1015.0
20260906133115 68 0 0.0 0.0 0.00 0.00 0.00 86 1015.0
20260906131615 67 0 0.0 0.0 0.00 0.00 0.00 89 1015.0
20260906130105 68 0 0.0 0.0 0.00 0.00 0.00 89 1014.8
20260906124553 66 0 0.0 2.0 0.00 0.00 0.00 92 1014.8
20260906123053 65 0 0.0 0.0 0.00 0.00 0.00 95 1015.0
20260906121558 64 0 0.0 0.0 0.00 0.00 0.00 95 1014.9
20260906120101 63 0 0.0 0.0 0.00 0.00 0.00 96 1014.7
20260906114553 63 0 0.0 0.0 0.00 0.00 0.00 95 1014.6
20260906113101 63 0 0.0 0.0 0.00 0.00 0.00 95 1014.2
20260906111559 62 0 0.0 0.0 0.00 0.00 0.00 95 1014.1
20260906110056 62 0 0.0 0.0 0.00 0.00 0.00 95 1013.9
20260906104551 62 0 0.0 0.0 0.00 0.00 0.00 95 1013.7
20260906103052 62 0 0.0 0.0 0.00 0.00 0.00 95 1013.6
20260906101559 62 0 0.0 0.0 0.00 0.00 0.00 94 1013.3
20260906100055 63 0 0.0 0.0 0.00 0.00 0.00 94 1013.3
20260906094549 63 0 0.0 0.0 0.00 0.00 0.00 94 1013.2
20260906093057 63 0 0.0 0.0 0.00 0.00 0.00 95 1013.2
20260906091559 63 0 0.0 0.0 0.00 0.00 0.00 95 1013.0
20260906090058 63 0 0.0 0.0 0.00 0.00 0.00 94 1013.0
20260906084602 63 0 0.0 0.0 0.00 0.00 0.00 94 1012.8
20260906083059 63 0 0.0 0.0 0.00 0.00 0.00 95 1012.5
20260906081600 63 0 0.0 0.0 0.00 0.00 0.00 95 1012.4
20260906080059 63 0 0.0 0.0 0.00 0.00 0.00 94 1012.4
20260906074558 63 0 0.0 0.0 0.00 0.00 0.00 93 1012.4
20260906073103 64 0 0.0 0.0 0.00 0.00 0.00 93 1012.4
20260906071600 64 0 0.0 0.0 0.00 0.00 0.00 93 1012.3
20260906070057 64 0 0.0 0.0 0.00 0.00 0.00 93 1012.4
20260906064552 64 0 0.0 0.0 0.00 0.00 0.00 93 1012.4
20260906063100 64 0 0.0 0.0 0.00 0.00 0.00 93 1012.4
20260906061559 64 0 0.0 0.0 0.00 0.00 0.00 92 1012.6
20260906060107 64 0 0.0 0.0 0.00 0.00 0.00 93 1012.7
20260906054552 64 0 0.0 0.0 0.00 0.00 0.00 92 1012.7
20260906053050 64 0 0.0 0.0 0.00 0.00 0.00 91 1012.7
20260906051600 64 0 0.0 0.0 0.00 0.00 0.00 90 1012.7
20260906050059 65 0 0.0 0.0 0.00 0.00 0.00 89 1012.8
20260906044603 65 0 0.0 0.0 0.00 0.00 0.00 88 1012.7
20260906043059 66 0 0.0 0.0 0.00 0.00 0.00 87 1012.7
20260906041558 66 0 0.0 0.0 0.00 0.00 0.00 85 1012.5
20260906040056 67 0 0.0 0.0 0.00 0.00 0.00 85 1012.6
20260906034602 67 0 0.0 0.0 0.00 0.00 0.00 85 1012.6
20260906033105 67 0 0.0 0.0 0.00 0.00 0.00 84 1012.4
20260906031558 68 0 0.0 0.0 0.00 0.00 0.00 82 1012.4
20260906024600 69 0 0.0 0.0 0.00 0.00 0.00 81 1012.2
20260906023058 70 0 0.0 0.0 0.00 0.00 0.00 80 1012.2
20260906021600 70 0 0.0 0.0 0.00 0.00 0.00 80 1012.1
20260906020101 70 0 0.0 0.0 0.00 0.00 0.00 80 1012.1
20260906014605 69 0 0.0 1.0 0.00 0.00 0.00 80 1012.0
20260906013052 69 0 0.0 0.0 0.00 0.00 0.00 82 1012.0
20260906011603 69 0 0.0 0.0 0.00 0.00 0.00 84 1011.9
20260906010053 69 0 0.0 0.0 0.00 0.00 0.00 83 1011.8
20260906004557 69 0 0.0 0.0 0.00 0.00 0.00 83 1011.6
20260906003053 69 0 0.0 0.0 0.00 0.00 0.00 82 1011.5
20260906001556 70 0 0.0 0.0 0.00 0.00 0.00 81 1011.4
20260906000100 71 0 0.0 0.0 0.00 0.00 0.00 79 1011.2
20260905234556 72 0 0.0 0.0 0.00 0.00 0.00 77 1010.9
20260905233108 72 0 0.0 0.0 0.00 0.00 0.00 75 1010.9
20260905231600 73 0 0.0 0.0 0.00 0.00 0.00 74 1010.9
20260905224608 76 0 0.0 0.0 0.00 0.00 0.00 68 1010.4
20260905223106 77 0 0.0 0.0 0.00 0.00 0.00 67 1010.6
20260905221557 77 0 0.0 0.0 0.00 0.00 0.00 67 1010.5
20260905220054 78 0 0.0 1.0 0.00 0.00 0.00 64 1010.4
20260905214549 78 0 0.0 3.0 0.00 0.00 0.00 63 1010.2
20260905213100 79 0 0.0 2.0 0.00 0.00 0.00 60 1010.2
20260905211558 77 0 0.0 0.0 0.00 0.00 0.00 60 1010.2
20260905210055 79 0 0.0 4.0 0.00 0.00 0.00 56 1010.3